Location: Kalispell
(48.1967°N, 114.3128°W)
Time: 12:12:39
(UTC-06:00)

Amateur Radio Satellites - All Passes

Search period start: 01 August 2015 11:42
Search period end: 02 August 2015 11:42
Location: Kalispell, 48.1967°N, 114.3128°W

Satellite Date Start Highest point End Downlink Frequencies (MHz)
Time Altitude Azimuth
Cosmos 2499 01 Aug 11:43:59 11:47:55 14° 314° (NW) 11:51:33 435.465 / 435.565
GOMX 1 01 Aug 11:44:59 11:46:49 12° 301° (WNW) 11:48:30 467.674
UNISAT 6 01 Aug 11:45:30 11:49:44 47° 262° (W) 11:54:04 437.425
AIST 1 01 Aug 11:46:50 11:48:07 11° 83° (E) 11:49:37
FUNcube-1 01 Aug 11:48:36 11:53:09 87° 284° (WNW) 11:57:44 145.935
UWE-3 01 Aug 11:51:24 11:55:58 64° 286° (WNW) 12:00:33 435.000/436.395/437.385
SEEDS 01 Aug 11:54:11 11:57:10 18° 298° (WNW) 12:00:01 437.485
POPSAT HIP 1 01 Aug 11:55:00 11:59:12 88° 250° (WSW) 12:03:26 437.405
50 SAT 01 Aug 11:55:44 11:58:59 24° 93° (E) 12:02:16 437.505
CUTE 1.7 + AOD 2 01 Aug 11:57:52 12:00:20 15° 300° (WNW) 12:02:38 437.475
BUGSAT 1 01 Aug 11:57:59 12:01:59 64° 73° (ENE) 12:05:59 437.445
SO-50 01 Aug 11:59:39 12:04:09 37° 321° (NW) 12:08:45 436.795
Oscar 11 01 Aug 12:01:28 12:05:36 41° 291° (WNW) 12:09:41 145.826/435.025
PCSat 01 Aug 12:01:55 12:06:44 30° 320° (NW) 12:11:30 145.827
UKube-1 01 Aug 12:02:42 12:06:42 36° 97° (E) 12:10:42 .
QB50P2 01 Aug 12:02:45 12:06:57 71° 258° (WSW) 12:11:11 145.880/145.840
DELFI C3 01 Aug 12:03:28 12:07:26 51° 288° (WNW) 12:11:21 145.870
O/OREOS (USA 219) 01 Aug 12:04:26 12:09:03 87° 64° (ENE) 12:13:39 437.305
CANX-2 01 Aug 12:07:07 12:08:37 11° 302° (WNW) 12:09:57 2200.000
CUBEBUG 2 01 Aug 12:07:40 12:11:56 38° 291° (WNW) 12:16:15 437.445
AISAT 01 Aug 12:07:43 12:11:34 29° 95° (E) 12:15:26 437.250
HUMSAT D 01 Aug 12:11:57 12:16:18 75° 102° (ESE) 12:20:38 437.325/437.525
Cosmos 2491 01 Aug 12:15:04 12:22:24 33° 83° (E) 12:29:55 435.465 / 435.565
AAUSAT CUBESAT 2 01 Aug 12:20:29 12:22:52 15° 299° (WNW) 12:25:06 437.432
CUBEBUG 1 01 Aug 12:21:19 12:24:46 23° 93° (E) 12:28:17 437.445
DUCHIFAT 1 01 Aug 12:27:20 12:31:19 42° 262° (W) 12:35:19 145.980
TIGRISAT 01 Aug 12:30:12 12:33:24 19° 271° (W) 12:36:31 435.000
QB50P1 01 Aug 12:30:55 12:34:50 37° 263° (W) 12:38:46 145.935-145.965
DX 1 01 Aug 12:31:00 12:35:22 77° 103° (ESE) 12:39:43 434.975-435.025
NANOSAT C BR1 01 Aug 12:32:03 12:35:57 37° 263° (W) 12:39:52 145.865
ANTELSAT 01 Aug 12:32:18 12:35:21 18° 271° (W) 12:38:20 437.575/2403.000
VELOX 1 01 Aug 12:46:21 12:50:45 67° 101° (ESE) 12:55:08 145.980
SPROUT 01 Aug 12:56:35 12:59:27 18° 90° (E) 13:02:27 437.525
ESTCUBE 1 01 Aug 12:59:06 13:03:35 65° 102° (ESE) 13:08:03 437.505/2401.250
HO-68 01 Aug 13:01:56 13:06:16 17° 314° (NW) 13:10:20 435.675
ZACube-1 01 Aug 13:04:16 13:07:29 19° 298° (WNW) 13:10:37 437.345
TISAT 1 01 Aug 13:07:45 13:09:55 14° 88° (E) 13:12:15 437.305
Cosmos 2504 01 Aug 13:11:43 13:18:20 26° 60° (ENE) 13:25:21 435.465 / 435.565
POLYITAN 1 01 Aug 13:16:16 13:18:37 14° 272° (W) 13:20:49 437.675
ITAMSAT 1 01 Aug 13:16:45 13:18:42 12° 53° (NE) 13:20:53 435.822/435.867
AIST 1 01 Aug 13:20:50 13:25:11 79° 279° (W) 13:29:33
AO-7 01 Aug 13:21:59 13:24:50 12° 31° (NNE) 13:28:00 29.400- 29.500
FUNcube-1 01 Aug 13:26:44 13:28:51 13° 301° (WNW) 13:30:48 145.935
50 SAT 01 Aug 13:30:00 13:33:37 33° 291° (WNW) 13:37:12 437.505
Oscar 19 01 Aug 13:30:43 13:35:33 44° 68° (ENE) 13:40:26 437.125/150
YUBILEINY 01 Aug 13:32:38 13:41:01 49° 271° (W) 13:49:18 435.215
BUGSAT 1 01 Aug 13:35:54 13:37:56 13° 272° (W) 13:39:48 437.445
UKube-1 01 Aug 13:39:03 13:42:43 27° 295° (WNW) 13:46:18 .
SO-50 01 Aug 13:43:21 13:46:06 15° 344° (NNW) 13:48:49 436.795
AISAT 01 Aug 13:44:11 13:48:11 34° 293° (WNW) 13:52:08 437.250
O/OREOS (USA 219) 01 Aug 13:46:01 13:47:51 12° 261° (W) 13:49:28 437.305
HUMSAT D 01 Aug 13:49:03 13:51:31 15° 300° (WNW) 13:53:50 437.325/437.525
PCSat 01 Aug 13:49:48 13:51:59 12° 345° (NNW) 13:54:06 145.827
CUBEBUG 1 01 Aug 13:57:14 14:01:18 40° 291° (WNW) 14:05:20 437.445
DX 1 01 Aug 14:08:39 14:11:06 15° 301° (WNW) 14:13:24 434.975-435.025
Cosmos 2491 01 Aug 14:10:03 14:18:47 65° 285° (WNW) 14:27:29 435.465 / 435.565
SWISSCUBE 01 Aug 14:13:24 14:15:55 14° 87° (E) 14:18:37 437.505
JAS-2 01 Aug 14:17:06 14:21:50 23° 53° (NE) 14:27:09 435.910
VELOX 1 01 Aug 14:24:01 14:26:52 17° 300° (WNW) 14:29:35 145.980
SPROUT 01 Aug 14:31:41 14:35:54 52° 288° (WNW) 14:40:05 437.525
Gurwin Techsat 1B 01 Aug 14:32:24 14:37:30 51° 69° (ENE) 14:42:40 435.225
ITUPSAT 1 01 Aug 14:33:51 14:37:21 20° 90° (E) 14:40:56 437.325
ESTCUBE 1 01 Aug 14:37:01 14:40:01 17° 299° (WNW) 14:42:53 437.505/2401.250
TISAT 1 01 Aug 14:41:59 14:46:10 65° 287° (WNW) 14:50:20 437.305
HORYU 2 01 Aug 14:49:50 14:50:21 10° 55° (NE) 14:51:04 437.375
ITAMSAT 1 01 Aug 14:52:10 14:57:21 67° 72° (ENE) 15:02:33 435.822/435.867
Cosmos 2504 01 Aug 15:03:16 15:11:40 85° 263° (W) 15:20:19 435.465 / 435.565
AO-7 01 Aug 15:07:59 15:15:23 38° 55° (NE) 15:22:54 29.400- 29.500
Oscar 19 01 Aug 15:10:42 15:15:07 28° 267° (W) 15:19:28 437.125/150
DANDE 01 Aug 15:12:30 15:14:53 17° 70° (ENE) 15:17:46 436.750
SO-50 01 Aug 15:26:33 15:28:41 13° 8° (N) 15:30:51 436.795
CUSAT 1 01 Aug 15:28:41 15:32:24 41° 75° (ENE) 15:37:17 437.405
BEESAT 01 Aug 15:28:58 15:33:45 65° 102° (ESE) 15:38:29 436.000
PCSat 01 Aug 15:36:23 15:37:56 11° 11° (N) 15:39:33 145.827
STARS 01 Aug 15:47:55 15:49:32 12° 86° (E) 15:51:23 437.465
SWISSCUBE 01 Aug 15:49:37 15:54:26 77° 286° (WNW) 15:59:11 437.505
JAS-2 01 Aug 15:59:45 16:05:59 88° 255° (WSW) 16:13:09 435.910
ITUPSAT 1 01 Aug 16:10:55 16:15:37 55° 290° (WNW) 16:20:16 437.325
Cosmos 2491 01 Aug 16:12:20 16:17:52 17° 311° (NW) 16:23:01 435.465 / 435.565
Gurwin Techsat 1B 01 Aug 16:13:21 16:17:48 26° 268° (W) 16:22:10 435.225
KKS-1 01 Aug 16:14:04 16:18:09 34° 96° (E) 16:22:15 437.445
GONETS M04 01 Aug 16:17:33 16:23:58 23° 55° (NE) 16:30:39
HORYU 2 01 Aug 16:21:46 16:26:12 68° 72° (ENE) 16:30:40 437.375
ITAMSAT 1 01 Aug 16:33:39 16:37:24 19° 271° (W) 16:41:00 435.822/435.867
DANDE 01 Aug 16:54:35 16:58:00 41° 261° (W) 17:02:26 436.750
Cosmos 2504 01 Aug 16:56:58 17:02:53 21° 282° (WNW) 17:08:33 435.465 / 435.565
AO-7 01 Aug 16:59:32 17:07:50 64° 256° (WSW) 17:16:11 29.400- 29.500
SO-50 01 Aug 17:06:47 17:10:55 26° 32° (NNE) 17:15:03 436.795
BEESAT 01 Aug 17:07:45 17:11:09 19° 300° (WNW) 17:14:26 436.000
MOZHAYETS 4 01 Aug 17:08:37 17:11:50 19° 89° (E) 17:15:10
Cubesat XI-IV 01 Aug 17:10:00 17:12:33 14° 54° (NE) 17:15:18 437.490
CUSAT 1 01 Aug 17:11:40 17:14:54 21° 265° (W) 17:18:42 437.405
PCSat 01 Aug 17:18:56 17:23:23 25° 36° (NE) 17:27:53 145.827
STARS 01 Aug 17:22:12 17:26:39 82° 286° (WNW) 17:31:05 437.465
SWISSCUBE 01 Aug 17:29:29 17:31:33 12° 305° (NW) 17:33:25 437.505
Cosmos 2499 01 Aug 17:38:26 17:44:06 19° 52° (NE) 17:50:13 435.465 / 435.565
JAS-2 01 Aug 17:48:10 17:52:24 17° 279° (W) 17:56:37 435.910
KKS-1 01 Aug 17:50:49 17:54:43 29° 294° (WNW) 17:58:33 437.445
HORYU 2 01 Aug 18:00:46 18:03:23 15° 272° (W) 18:05:50 437.375
CUTE-I 01 Aug 18:03:03 18:07:47 33° 64° (ENE) 18:12:34 437.470
GONETS M04 01 Aug 18:13:37 18:22:23 85° 80° (E) 18:31:09
MOZHAYETS 4 01 Aug 18:44:54 18:49:28 56° 288° (WNW) 18:53:59
Cubesat XI-IV 01 Aug 18:46:29 18:51:50 73° 73° (ENE) 18:57:14 437.490
SO-50 01 Aug 18:47:02 18:52:02 79° 234° (SW) 18:56:54 436.795
AO-7 01 Aug 18:58:25 19:02:36 14° 279° (W) 19:06:13 29.400- 29.500
STARS 01 Aug 19:00:43 19:02:25 12° 303° (WNW) 19:03:57 437.465
PCSat 01 Aug 19:01:59 19:07:26 79° 239° (WSW) 19:12:52 145.827
CUBESAT XI-V 01 Aug 19:03:48 19:07:33 25° 92° (E) 19:11:21 437.345
Cosmos 2499 01 Aug 19:30:27 19:39:09 70° 77° (ENE) 19:48:02 435.465 / 435.565
BRITE-PL 01 Aug 19:32:10 19:35:37 25° 66° (ENE) 19:39:04 437.365/2234.400
GOMX 1 01 Aug 19:40:37 19:43:26 18° 63° (ENE) 19:46:21 467.674
CUTE-I 01 Aug 19:42:44 19:47:48 41° 263° (W) 19:52:51 437.470
CUTE 1.7 + AOD 2 01 Aug 19:44:26 19:45:39 11° 58° (ENE) 19:47:03 437.475
STRAND 1 01 Aug 19:47:37 19:51:29 22° 91° (E) 19:55:27 437.568
CANX-2 01 Aug 19:51:45 19:54:00 14° 60° (ENE) 19:56:25 2200.000
PRISM 01 Aug 19:54:38 19:57:22 17° 90° (E) 20:00:12 437.425
VERMONT LUNAR 01 Aug 19:57:48 19:59:48 16° 166° (SSE) 20:01:50 437.305
HO-68 01 Aug 19:57:59 20:04:13 35° 58° (ENE) 20:10:34 435.675
AAUSAT CUBESAT 2 01 Aug 20:06:17 20:06:40 10° 57° (ENE) 20:07:16 437.432
GONETS M04 01 Aug 20:11:43 20:18:17 24° 281° (W) 20:24:32
Cubesat XI-IV 01 Aug 20:28:52 20:32:35 18° 272° (W) 20:36:07 437.490
SO-50 01 Aug 20:29:36 20:31:50 13° 251° (WSW) 20:33:51 436.795
CUBESAT XI-V 01 Aug 20:40:49 20:45:11 42° 291° (WNW) 20:49:30 437.345
PCSat 01 Aug 20:47:27 20:50:06 13° 255° (WSW) 20:52:27 145.827
COMPASS 1 01 Aug 20:56:59 21:00:47 34° 69° (ENE) 21:04:41 437.405
DOVE 4 01 Aug 21:02:12 21:06:19 71° 74° (ENE) 21:10:30 437.250
CINEMA 3 01 Aug 21:06:54 21:10:42 37° 69° (ENE) 21:14:40 145.822/145.860
BRITE-PL 01 Aug 21:10:04 21:14:05 36° 263° (W) 21:17:57 437.365/2234.400
RS-15 01 Aug 21:10:37 21:19:01 28° 104° (ESE) 21:28:02 29.354- 29.394
SEEDS 01 Aug 21:12:43 21:16:54 61° 73° (ENE) 21:21:09 437.485
FUNcube-1 01 Aug 21:13:53 21:16:12 15° 60° (ENE) 21:18:42 145.935
CUTE 1.7 + AOD 2 01 Aug 21:16:36 21:20:54 82° 74° (ENE) 21:25:13 437.475
UWE-3 01 Aug 21:17:03 21:20:06 20° 63° (ENE) 21:23:19 435.000/436.395/437.385
GOMX 1 01 Aug 21:17:12 21:21:18 49° 261° (W) 21:25:22 467.674
DELFI C3 01 Aug 21:20:15 21:22:57 18° 63° (ENE) 21:25:45 145.870
Oscar 11 01 Aug 21:23:58 21:27:40 28° 66° (ENE) 21:31:26 145.826/435.025
Cosmos 2499 01 Aug 21:24:21 21:31:46 31° 277° (W) 21:39:06 435.465 / 435.565
CANX-2 01 Aug 21:25:07 21:29:25 75° 259° (W) 21:33:44 2200.000
STRAND 1 01 Aug 21:26:05 21:31:06 56° 290° (WNW) 21:36:04 437.568
PRISM 01 Aug 21:29:08 21:33:08 49° 289° (WNW) 21:37:05 437.425
CUBEBUG 2 01 Aug 21:33:11 21:36:58 34° 68° (ENE) 21:40:54 437.445
VERMONT LUNAR 01 Aug 21:33:29 21:35:56 20° 183° (S) 21:38:22 437.305
HUMSAT D 01 Aug 21:35:01 21:36:02 11° 58° (ENE) 21:37:14 437.325/437.525
AAUSAT CUBESAT 2 01 Aug 21:37:22 21:41:34 76° 75° (ENE) 21:45:48 437.432
ISS 01 Aug 21:41:43 21:44:07 19° 140° (SE) 21:46:35 145.825
HO-68 01 Aug 21:44:39 21:51:41 59° 258° (WSW) 21:58:46 435.675
DX 1 01 Aug 21:56:18 21:58:32 14° 59° (ENE) 22:00:56 434.975-435.025
PHONESAT 2.4 01 Aug 21:58:53 22:01:25 19° 167° (SSE) 22:03:59 2401.200-2431.200
VELOX 1 01 Aug 22:13:44 22:15:42 13° 58° (ENE) 22:17:50 145.980
Cosmos 2491 01 Aug 22:19:52 22:25:52 21° 53° (NE) 22:32:11 435.465 / 435.565
M-CUBED/EXP-1 PRIME 01 Aug 22:21:18 22:24:15 16° 93° (E) 22:27:20 437.505
ZACube-1 01 Aug 22:26:26 22:30:37 72° 75° (ENE) 22:34:58 437.345
ESTCUBE 1 01 Aug 22:28:09 22:30:17 14° 58° (ENE) 22:32:35 437.505/2401.250
COMPASS 1 01 Aug 22:32:57 22:36:32 26° 267° (W) 22:40:06 437.405
DOVE 4 01 Aug 22:43:01 22:44:44 12° 274° (W) 22:46:15 437.250
50 SAT 01 Aug 22:43:06 22:46:11 23° 66° (ENE) 22:49:21 437.505
CINEMA 3 01 Aug 22:44:41 22:48:05 23° 268° (W) 22:51:30 145.822/145.860
FUNcube-1 01 Aug 22:47:49 22:52:01 71° 258° (WSW) 22:56:21 145.935
AUBIESAT-1 01 Aug 22:49:17 22:53:12 25° 97° (E) 22:57:06 437.475
SEEDS 01 Aug 22:50:35 22:53:10 15° 272° (W) 22:55:35 437.485
UWE-3 01 Aug 22:52:14 22:56:20 48° 261° (W) 23:00:33 435.000/436.395/437.385
DELFI C3 01 Aug 22:53:42 22:57:40 52° 260° (W) 23:01:41 145.870
CUTE 1.7 + AOD 2 01 Aug 22:55:57 22:57:28 11° 275° (W) 22:58:47 437.475
Oscar 11 01 Aug 22:59:48 23:03:46 34° 264° (W) 23:07:45 145.826/435.025
UKube-1 01 Aug 23:00:45 23:04:55 49° 70° (ENE) 23:09:07 .
HUMSAT D 01 Aug 23:06:55 23:11:05 82° 75° (ENE) 23:15:20 437.325/437.525
STRAND 1 01 Aug 23:08:37 23:09:20 10° 309° (NW) 23:09:49 437.568
AISAT 01 Aug 23:08:47 23:12:54 41° 69° (ENE) 23:17:03 437.250
CUBEBUG 2 01 Aug 23:10:09 23:13:44 26° 267° (W) 23:17:23 437.445
VERMONT LUNAR 01 Aug 23:10:33 23:12:00 12° 199° (SSW) 23:13:24 437.305
AAUSAT CUBESAT 2 01 Aug 23:16:00 23:17:46 12° 274° (W) 23:19:21 437.432
ISS 01 Aug 23:16:58 23:20:15 88° 341° (NNW) 23:23:31 145.825
RS-15 01 Aug 23:19:05 23:30:05 90° 320° (NW) 23:41:34 29.354- 29.394
CUBEBUG 1 01 Aug 23:20:48 23:24:38 31° 67° (ENE) 23:28:29 437.445
AIST 1 01 Aug 23:24:22 23:28:19 36° 73° (ENE) 23:32:16
DX 1 01 Aug 23:29:54 23:34:15 78° 255° (WSW) 23:38:38 434.975-435.025
UNISAT 6 01 Aug 23:33:38 23:37:42 29° 94° (E) 23:41:50 437.425
PHONESAT 2.4 01 Aug 23:35:57 23:38:47 23° 184° (S) 23:41:37 2401.200-2431.200
POPSAT HIP 1 01 Aug 23:38:23 23:39:57 12° 86° (E) 23:41:44 437.405
HO-68 01 Aug 23:39:26 23:41:13 11° 281° (W) 23:42:28 435.675
QB50P2 01 Aug 23:45:35 23:47:59 15° 88° (E) 23:50:33 145.880/145.840
VELOX 1 01 Aug 23:47:13 23:51:39 88° 255° (WSW) 23:56:05 145.980
BEESAT 3 01 Aug 23:50:44 23:53:52 22° 116° (ESE) 23:57:06 437.485
SPROUT 01 Aug 23:54:13 23:57:30 22° 64° (ENE) 00:00:52 437.525
M-CUBED/EXP-1 PRIME 01 Aug 23:54:44 23:59:34 74° 292° (WNW) 00:04:17 437.505
ESTCUBE 1 02 Aug 00:02:00 00:06:33 89° 255° (WSW) 00:11:07 437.505/2401.250
TISAT 1 02 Aug 00:03:17 00:06:05 18° 62° (ENE) 00:09:00 437.305
ZACube-1 02 Aug 00:05:36 00:07:37 13° 274° (W) 00:09:28 437.345
DUCHIFAT 1 02 Aug 00:08:29 00:11:52 23° 93° (E) 00:15:20 145.980
QB50P1 02 Aug 00:12:16 00:15:51 26° 94° (E) 00:19:30 145.935-145.965
NANOSAT C BR1 02 Aug 00:13:09 00:16:44 26° 94° (E) 00:20:23 145.865
Cosmos 2491 02 Aug 00:15:46 00:24:33 78° 79° (ENE) 00:33:17 435.465 / 435.565
TIGRISAT 02 Aug 00:16:16 00:20:57 70° 101° (E) 00:25:39 435.000
50 SAT 02 Aug 00:17:00 00:20:36 34° 264° (W) 00:24:14 437.505
ANTELSAT 02 Aug 00:18:26 00:23:09 76° 103° (ESE) 00:27:52 437.575/2403.000
AUBIESAT-1 02 Aug 00:23:31 00:28:06 47° 296° (WNW) 00:32:34 437.475
UKube-1 02 Aug 00:38:12 00:41:21 19° 269° (W) 00:44:24 .
YUBILEINY 02 Aug 00:41:22 00:49:23 44° 88° (E) 00:57:34 435.215
AISAT 02 Aug 00:46:03 00:49:39 24° 267° (W) 00:53:10 437.250
HUMSAT D 02 Aug 00:46:19 00:47:31 11° 275° (W) 00:48:29 437.325/437.525
BEESAT 2 02 Aug 00:48:48 00:52:51 61° 124° (SE) 00:56:57 435.950
AIST 2 02 Aug 00:50:55 00:53:45 18° 113° (ESE) 00:56:43 435.215
ISS 02 Aug 00:53:44 00:56:53 43° 357° (N) 01:00:02 145.825
POLYITAN 1 02 Aug 00:55:25 00:59:43 74° 103° (ESE) 01:04:01 437.675
CUBEBUG 1 02 Aug 00:57:05 01:00:59 30° 265° (W) 01:04:49 437.445
AIST 1 02 Aug 01:02:23 01:05:48 23° 272° (W) 01:09:08
BEESAT 02 Aug 01:03:20 01:06:21 17° 59° (ENE) 01:09:30 436.000
UNISAT 6 02 Aug 01:10:13 01:14:33 38° 292° (WNW) 01:18:52 437.425
BUGSAT 1 02 Aug 01:11:40 01:15:45 67° 103° (ESE) 01:19:49 437.445
POPSAT HIP 1 02 Aug 01:12:10 01:16:26 77° 286° (WNW) 01:20:42 437.405
PHONESAT 2.4 02 Aug 01:14:16 01:16:04 13° 200° (SSW) 01:17:49 2401.200-2431.200
QB50P2 02 Aug 01:20:06 01:24:20 62° 288° (WNW) 01:28:34 145.880/145.840
SWISSCUBE 02 Aug 01:22:56 01:26:51 26° 64° (ENE) 01:30:52 437.505
BEESAT 3 02 Aug 01:27:34 01:31:33 49° 314° (NW) 01:35:33 437.485
VELOX 1 02 Aug 01:28:05 01:28:58 10° 275° (W) 01:29:36 145.980
SPROUT 02 Aug 01:29:17 01:33:22 43° 262° (W) 01:37:27 437.525
M-CUBED/EXP-1 PRIME 02 Aug 01:31:04 01:33:35 14° 310° (NW) 01:35:56 437.505
RS-15 02 Aug 01:33:39 01:44:04 42° 337° (NNW) 01:54:54 29.354- 29.394
TISAT 1 02 Aug 01:37:25 01:41:31 53° 260° (W) 01:45:37 437.305
Oscar 19 02 Aug 01:40:42 01:42:14 11° 84° (E) 01:44:05 437.125/150
ESTCUBE 1 02 Aug 01:42:47 01:44:11 11° 275° (W) 01:45:20 437.505/2401.250
ITUPSAT 1 02 Aug 01:43:51 01:48:12 36° 66° (ENE) 01:52:36 437.325
DUCHIFAT 1 02 Aug 01:43:51 01:47:49 38° 291° (WNW) 01:51:45 145.980
QB50P1 02 Aug 01:47:54 01:51:47 34° 292° (WNW) 01:55:38 145.935-145.965
NANOSAT C BR1 02 Aug 01:48:46 01:52:38 34° 292° (WNW) 01:56:28 145.865
Cosmos 2504 02 Aug 01:51:27 01:54:18 13° 73° (ENE) 01:57:41 435.465 / 435.565
TIGRISAT 02 Aug 01:54:06 01:57:14 18° 299° (WNW) 02:00:16 435.000
ANTELSAT 02 Aug 01:56:24 01:59:24 17° 300° (WNW) 02:02:16 437.575/2403.000
Cosmos 2491 02 Aug 02:13:42 02:20:36 26° 280° (W) 02:27:14 435.465 / 435.565
O/OREOS (USA 219) 02 Aug 02:20:16 02:24:35 50° 110° (ESE) 02:28:58 437.305
AIST 2 02 Aug 02:27:41 02:31:56 64° 311° (NW) 02:36:11 435.215
BEESAT 2 02 Aug 02:27:53 02:31:15 23° 324° (NW) 02:34:36 435.950
ISS 02 Aug 02:30:22 02:33:37 65° 17° (NNE) 02:36:52 145.825
POLYITAN 1 02 Aug 02:32:41 02:35:07 15° 300° (WNW) 02:37:24 437.675
YUBILEINY 02 Aug 02:37:49 02:46:13 49° 290° (WNW) 02:54:40 435.215
BEESAT 02 Aug 02:38:53 02:43:41 75° 257° (WSW) 02:48:31 436.000
Gurwin Techsat 1B 02 Aug 02:46:12 02:49:04 15° 86° (E) 02:52:09 435.225
STARS 02 Aug 02:47:50 02:50:45 18° 61° (ENE) 02:53:47 437.465
BUGSAT 1 02 Aug 02:48:28 02:50:46 14° 299° (WNW) 02:52:56 437.445
POPSAT HIP 1 02 Aug 02:50:38 02:51:37 11° 303° (WNW) 02:52:25 437.405
SWISSCUBE 02 Aug 02:59:54 03:04:31 45° 262° (W) 03:09:08 437.505
ITAMSAT 1 02 Aug 03:02:24 03:05:46 18° 88° (E) 03:09:17 435.822/435.867
JAS-2 02 Aug 03:06:30 03:10:38 16° 79° (E) 03:15:12 435.910
BEESAT 3 02 Aug 03:08:23 03:10:27 13° 336° (NNW) 03:12:26 437.485
KKS-1 02 Aug 03:15:32 03:19:48 49° 70° (ENE) 03:24:06 437.445
Oscar 19 02 Aug 03:17:21 03:22:34 79° 103° (ESE) 03:27:47 437.125/150
ITUPSAT 1 02 Aug 03:21:48 03:26:07 32° 265° (W) 03:30:25 437.325
Cosmos 2504 02 Aug 03:37:52 03:44:58 67° 94° (E) 03:52:40 435.465 / 435.565
RS-15 02 Aug 03:49:55 04:00:08 36° 10° (N) 04:10:51 29.354- 29.394
O/OREOS (USA 219) 02 Aug 04:00:36 04:04:18 24° 311° (NW) 04:07:57 437.305
ISS 02 Aug 04:06:59 04:09:54 30° 216° (SW) 04:12:49 145.825
AIST 2 02 Aug 04:08:37 04:11:20 16° 333° (NNW) 04:13:57 435.215
HORYU 2 02 Aug 04:12:35 04:12:49 10° 84° (E) 04:13:19 437.375
MOZHAYETS 4 02 Aug 04:13:50 04:17:43 28° 65° (ENE) 04:21:41
STARS 02 Aug 04:22:30 04:26:49 59° 259° (W) 04:31:09 437.465
Gurwin Techsat 1B 02 Aug 04:24:29 04:29:51 85° 288° (WNW) 04:35:11 435.225
ITAMSAT 1 02 Aug 04:40:42 04:45:54 71° 288° (WNW) 04:51:02 435.822/435.867
CUSAT 1 02 Aug 04:42:11 04:44:17 20° 95° (E) 04:46:21 437.405
YUBILEINY 02 Aug 04:42:20 04:46:00 12° 318° (NW) 04:49:11 435.215
JAS-2 02 Aug 04:49:23 04:57:12 68° 101° (E) 05:04:58 435.910
KKS-1 02 Aug 04:53:26 04:56:44 20° 269° (W) 04:59:58 437.445
AO-7 02 Aug 04:57:07 05:04:37 37° 95° (E) 05:12:11 29.400- 29.500
Oscar 19 02 Aug 04:57:51 05:01:23 18° 302° (WNW) 05:04:46 437.125/150
GONETS M04 02 Aug 05:25:54 05:31:34 21° 77° (ENE) 05:37:37
Cosmos 2504 02 Aug 05:31:43 05:37:58 29° 298° (WNW) 05:44:29 435.465 / 435.565
HORYU 2 02 Aug 05:45:44 05:50:17 83° 103° (ESE) 05:54:48 437.375
MOZHAYETS 4 02 Aug 05:50:26 05:54:48 40° 263° (W) 05:59:12
RS-15 02 Aug 06:03:48 06:15:19 63° 41° (NE) 06:27:22 29.354- 29.394
Gurwin Techsat 1B 02 Aug 06:05:58 06:09:08 16° 304° (NW) 06:12:08 435.225
CUBESAT XI-V 02 Aug 06:10:27 06:14:43 37° 68° (ENE) 06:19:01 437.345
DANDE 02 Aug 06:12:00 06:14:39 29° 286° (WNW) 06:17:03 436.750
ITAMSAT 1 02 Aug 06:22:12 06:24:35 13° 306° (NW) 06:26:45 435.822/435.867
CUSAT 1 02 Aug 06:25:51 06:26:54 11° 294° (WNW) 06:27:51 437.405
BEESAT 3 02 Aug 06:28:09 06:29:56 13° 23° (NNE) 06:31:47 437.485
JAS-2 02 Aug 06:34:58 06:41:47 34° 300° (WNW) 06:48:32 435.910
PRISM 02 Aug 06:47:57 06:51:11 23° 64° (ENE) 06:54:29 437.425
AO-7 02 Aug 06:49:42 06:57:55 61° 296° (WNW) 07:06:01 29.400- 29.500
Cubesat XI-IV 02 Aug 07:00:49 07:04:49 22° 90° (E) 07:08:57 437.490
STRAND 1 02 Aug 07:06:41 07:11:34 45° 68° (ENE) 07:16:28 437.568
GONETS M04 02 Aug 07:18:34 07:27:17 86° 98° (E) 07:36:02
HORYU 2 02 Aug 07:23:51 07:26:21 14° 302° (WNW) 07:28:41 437.375
BEESAT 2 02 Aug 07:27:05 07:30:17 22° 34° (NE) 07:33:31 435.950
AIST 2 02 Aug 07:30:25 07:32:06 12° 20° (NNE) 07:33:52 435.215
CUBESAT XI-V 02 Aug 07:48:08 07:52:14 29° 266° (W) 07:56:17 437.345
CUTE-I 02 Aug 07:55:38 08:00:56 61° 101° (E) 08:06:11 437.470
BEESAT 3 02 Aug 08:04:57 08:08:53 45° 45° (NE) 08:12:47 437.485
Cosmos 2499 02 Aug 08:11:35 08:18:40 49° 89° (E) 08:26:24 435.465 / 435.565
RS-15 02 Aug 08:16:35 08:27:47 52° 246° (WSW) 08:39:14 29.354- 29.394
PRISM 02 Aug 08:22:25 08:26:24 41° 262° (W) 08:30:23 437.425
Cubesat XI-IV 02 Aug 08:40:08 08:45:24 60° 290° (WNW) 08:50:37 437.490
AO-7 02 Aug 08:43:47 08:49:14 19° 319° (NW) 08:54:24 29.400- 29.500
STRAND 1 02 Aug 08:46:34 08:50:59 27° 267° (W) 08:55:20 437.568
DOVE 4 02 Aug 08:57:50 09:00:34 16° 88° (E) 09:03:33 437.250
CUTE 1.7 + AOD 2 02 Aug 09:00:23 09:01:42 11° 85° (E) 09:03:15 437.475
BEESAT 2 02 Aug 09:04:40 09:08:45 67° 235° (SW) 09:12:45 435.950
SO-50 02 Aug 09:06:44 09:09:21 15° 110° (ESE) 09:12:12 436.795
AIST 2 02 Aug 09:07:51 09:11:50 39° 43° (NE) 09:15:46 435.215
CANX-2 02 Aug 09:07:59 09:10:30 15° 88° (E) 09:13:10 2200.000
HO-68 02 Aug 09:08:50 09:14:19 24° 89° (E) 09:19:59 435.675
BRITE-PL 02 Aug 09:09:45 09:13:58 47° 99° (E) 09:18:28 437.365/2234.400
M-CUBED/EXP-1 PRIME 02 Aug 09:11:49 09:15:34 33° 60° (ENE) 09:19:38 437.505
GOMX 1 02 Aug 09:14:22 09:18:27 33° 96° (E) 09:22:48 467.674
GONETS M04 02 Aug 09:18:25 09:25:27 25° 302° (WNW) 09:32:15
CUTE-I 02 Aug 09:36:26 09:40:39 24° 300° (WNW) 09:44:43 437.470
AUBIESAT-1 02 Aug 09:39:33 09:43:37 51° 65° (ENE) 09:48:02 437.475
BEESAT 3 02 Aug 09:43:19 09:46:36 23° 244° (WSW) 09:49:47 437.485
TIGRISAT 02 Aug 09:44:47 09:46:46 13° 58° (ENE) 09:48:56 435.000
ANTELSAT 02 Aug 09:46:49 09:49:05 14° 58° (ENE) 09:51:32 437.575/2403.000
PCSat 02 Aug 09:47:08 09:52:14 45° 116° (ESE) 09:57:25 145.827
Cosmos 2499 02 Aug 10:04:58 10:12:04 41° 293° (WNW) 10:19:39 435.465 / 435.565
COMPASS 1 02 Aug 10:11:55 10:15:54 39° 97° (E) 10:19:52 437.405
ZACube-1 02 Aug 10:13:10 10:14:47 12° 85° (E) 10:16:40 437.345
POLYITAN 1 02 Aug 10:19:13 10:20:37 12° 58° (ENE) 10:22:11 437.675
Cubesat XI-IV 02 Aug 10:22:44 10:24:33 11° 308° (NW) 10:26:08 437.490
SEEDS 02 Aug 10:28:57 10:33:15 73° 102° (ESE) 10:37:29 437.485
DELFI C3 02 Aug 10:29:58 10:32:32 16° 89° (E) 10:35:12 145.870
FUNcube-1 02 Aug 10:33:06 10:36:13 18° 89° (E) 10:39:28 145.935
CUTE 1.7 + AOD 2 02 Aug 10:33:57 10:38:17 82° 285° (WNW) 10:42:34 437.475
CINEMA 3 02 Aug 10:34:02 10:38:39 59° 101° (E) 10:43:28 145.822/145.860
RS-15 02 Aug 10:34:12 10:37:44 11° 266° (W) 10:40:07 29.354- 29.394
DOVE 4 02 Aug 10:34:14 10:38:48 69° 286° (WNW) 10:43:38 437.250
POPSAT HIP 1 02 Aug 10:34:31 10:36:59 16° 61° (ENE) 10:39:36 437.405
UNISAT 6 02 Aug 10:36:07 10:40:09 37° 68° (ENE) 10:44:20 437.425
UWE-3 02 Aug 10:38:18 10:42:10 27° 93° (E) 10:46:10 435.000/436.395/437.385
QB50P2 02 Aug 10:42:00 10:44:55 19° 63° (ENE) 10:47:58 145.880/145.840
CANX-2 02 Aug 10:42:37 10:46:53 61° 287° (WNW) 10:51:07 2200.000
Oscar 11 02 Aug 10:43:09 10:47:07 33° 95° (E) 10:51:05 145.826/435.025
SO-50 02 Aug 10:44:26 10:49:15 89° 308° (NW) 10:54:14 436.795
YUBILEINY 02 Aug 10:46:30 10:53:42 28° 59° (ENE) 11:01:06 435.215
M-CUBED/EXP-1 PRIME 02 Aug 10:46:36 10:50:20 31° 260° (W) 10:54:20 437.505
AIST 2 02 Aug 10:46:37 10:50:18 30° 243° (WSW) 10:53:54 435.215
O/OREOS (USA 219) 02 Aug 10:47:33 10:51:24 26° 51° (NE) 10:55:18 437.305
BRITE-PL 02 Aug 10:48:58 10:52:19 22° 295° (WNW) 10:55:45 437.365/2234.400
HUMSAT D 02 Aug 10:49:30 10:50:40 11° 85° (E) 10:52:04 437.325/437.525
AAUSAT CUBESAT 2 02 Aug 10:52:04 10:56:19 87° 103° (ESE) 11:00:31 437.432
GOMX 1 02 Aug 10:52:37 10:56:35 31° 292° (WNW) 11:00:43 467.674
HO-68 02 Aug 10:55:41 11:02:53 78° 290° (WNW) 11:10:04 435.675
CUBEBUG 2 02 Aug 10:56:14 11:00:44 49° 98° (E) 11:05:20 437.445
DUCHIFAT 1 02 Aug 11:04:15 11:07:49 28° 66° (ENE) 11:11:26 145.980
QB50P1 02 Aug 11:08:24 11:12:07 32° 67° (ENE) 11:15:53 145.935-145.965
NANOSAT C BR1 02 Aug 11:09:04 11:12:46 32° 67° (ENE) 11:16:32 145.865
AUBIESAT-1 02 Aug 11:15:33 11:18:42 20° 265° (W) 11:21:54 437.475
DX 1 02 Aug 11:16:04 11:18:14 14° 88° (E) 11:20:36 434.975-435.025
TIGRISAT 02 Aug 11:18:30 11:22:52 89° 256° (WSW) 11:27:23 435.000
ANTELSAT 02 Aug 11:20:52 11:25:16 82° 256° (WSW) 11:29:48 437.575/2403.000
Cosmos 2491 02 Aug 11:28:47 11:34:00 18° 76° (ENE) 11:39:38 435.465 / 435.565
PCSat 02 Aug 11:30:46 11:35:48 37° 316° (NW) 11:40:51 145.827
VELOX 1 02 Aug 11:35:34 11:37:42 14° 87° (E) 11:40:01 145.980
